This is the latest recevied weather packets stored in our database for station/object DL9GRB-13. If no packets are shown the sender has not sent any weather packets the latest 10 day(s).
| Time | Temp. | Humidity | Pressure | Rain* | Wind** | Luminosity | Snow |
|---|---|---|---|---|---|---|---|
| 1777991468 | 13.33° C | 67% | 1009.7 hPa | 0 mm | - | 230 W/m² | - |
| 1777991288 | 13.33° C | 66% | 1009.7 hPa | 0 mm | - | 242 W/m² | - |
| 1777991108 | 13.33° C | 65% | 1009.7 hPa | 0 mm | - | 236 W/m² | - |
| 1777990928 | 13.33° C | 64% | 1009.7 hPa | 0 mm | - | 224 W/m² | - |
| 1777990748 | 13.33° C | 65% | 1009.6 hPa | 0 mm | - | 236 W/m² | - |
| 1777990568 | 13.33° C | 66% | 1009.7 hPa | 0 mm | - | 226 W/m² | - |
| 1777990388 | 13.33° C | 68% | 1009.7 hPa | 0 mm | - | 225 W/m² | - |
| 1777990028 | 13.33° C | 68% | 1009.6 hPa | 0 mm | - | 259 W/m² | - |
| 1777989848 | 13.33° C | 66% | 1009.7 hPa | 0 mm | - | 267 W/m² | - |
| 1777989668 | 13.33° C | 67% | 1009.6 hPa | 0 mm | - | 265 W/m² | - |
| 1777989488 | 13.33° C | 68% | 1009.8 hPa | 0 mm | - | 275 W/m² | - |
| 1777989308 | 13.33° C | 69% | 1009.7 hPa | 0 mm | - | 326 W/m² | - |
| 1777989128 | 13.33° C | 66% | 1009.8 hPa | 0 mm | - | 354 W/m² | - |
| 1777988948 | 13.89° C | 67% | 1009.7 hPa | 0 mm | - | 348 W/m² | - |
| 1777988768 | 13.89° C | 65% | 1009.9 hPa | 0 mm | - | 404 W/m² | - |
| 1777988588 | 13.89° C | 66% | 1009.8 hPa | 0 mm | - | 391 W/m² | - |
| 1777988408 | 13.33° C | 70% | 1009.9 hPa | 0 mm | - | 360 W/m² | - |
| 1777988228 | 13.33° C | 70% | 1009.9 hPa | 0 mm | - | 330 W/m² | - |
| 1777988048 | 13.33° C | 70% | 1009.8 hPa | 0 mm | - | 392 W/m² | - |
| 1777987868 | 13.33° C | 70% | 1009.8 hPa | 0 mm | - | 409 W/m² | - |
| 1777987688 | 13.33° C | 70% | 1009.8 hPa | 0 mm | - | 463 W/m² | - |
| 1777987508 | 12.78° C | 69% | 1010 hPa | 0 mm | - | 505 W/m² | - |
| 1777987328 | 12.78° C | 69% | 1009.7 hPa | 0 mm | - | 467 W/m² | - |
| 1777987148 | 12.78° C | 68% | 1009.9 hPa | 0 mm | - | 398 W/m² | - |
| 1777986968 | 12.78° C | 70% | 1009.9 hPa | 0 mm | - | 327 W/m² | - |
* Rain latest hour (hover to see other rain measurements)
** Current wind speed in m/s (hover to see current wind gust speed)